Year,Month,Day,Hour,Minute,Value (Times are PST for temperature in C)
2012,09,19,00,02,12.80
2012,09,19,00,04,12.80
2012,09,19,00,05,12.80
2012,09,19,00,06,12.70
2012,09,19,00,09,12.70
2012,09,19,00,10,12.70
2012,09,19,00,11,12.70
2012,09,19,00,12,12.60
2012,09,19,00,13,12.60
2012,09,19,00,14,12.60
2012,09,19,00,16,12.50
2012,09,19,00,17,12.50
2012,09,19,00,18,12.40
2012,09,19,00,19,12.40
2012,09,19,00,20,12.40
2012,09,19,00,21,12.40
2012,09,19,00,22,12.40
2012,09,19,00,24,12.40
2012,09,19,00,25,12.40
2012,09,19,00,26,12.40
2012,09,19,00,27,12.30
2012,09,19,00,28,12.30
2012,09,19,00,30,12.20
2012,09,19,00,31,12.20
2012,09,19,00,32,12.10
2012,09,19,00,33,12.10
2012,09,19,00,35,12.10
2012,09,19,00,36,12.00
2012,09,19,00,37,12.00
2012,09,19,00,39,11.90
2012,09,19,00,40,11.90
2012,09,19,00,41,11.90
2012,09,19,00,42,11.90
2012,09,19,00,43,11.90
2012,09,19,00,45,11.90
2012,09,19,00,46,11.90
2012,09,19,00,47,11.90
2012,09,19,00,48,11.80
2012,09,19,00,49,11.80
2012,09,19,00,51,11.80
2012,09,19,00,52,11.80
2012,09,19,00,53,11.80
2012,09,19,00,54,11.80
2012,09,19,00,56,11.80
2012,09,19,00,57,11.80
2012,09,19,00,58,11.70
2012,09,19,00,59,11.70
2012,09,19,01,01,11.70
2012,09,19,01,02,11.70
2012,09,19,01,03,11.70
2012,09,19,01,05,11.60
2012,09,19,01,06,11.60
2012,09,19,01,07,11.60
2012,09,19,01,08,11.60
2012,09,19,01,09,11.60
2012,09,19,01,10,11.60
2012,09,19,01,11,11.60
2012,09,19,01,12,11.60
2012,09,19,01,14,11.60
2012,09,19,01,15,11.70
2012,09,19,01,17,11.70
2012,09,19,01,18,11.70
2012,09,19,01,19,11.70
2012,09,19,01,21,11.80
2012,09,19,01,22,11.80
2012,09,19,01,23,11.80
2012,09,19,01,24,11.80
2012,09,19,01,26,11.80
2012,09,19,01,27,11.70
2012,09,19,01,28,11.70
2012,09,19,01,29,11.70
2012,09,19,01,30,11.70
2012,09,19,01,31,11.70
2012,09,19,01,32,11.70
2012,09,19,01,33,11.70
2012,09,19,01,35,11.70
2012,09,19,01,36,11.70
2012,09,19,01,37,11.80
2012,09,19,01,38,11.80
2012,09,19,01,40,11.80
2012,09,19,01,41,11.80
2012,09,19,01,42,11.90
2012,09,19,01,44,11.90
2012,09,19,01,45,11.90
2012,09,19,01,46,12.00
2012,09,19,01,48,12.00
2012,09,19,01,49,12.10
2012,09,19,01,50,12.10
2012,09,19,01,51,12.10
2012,09,19,01,52,12.10
2012,09,19,01,53,12.00
2012,09,19,01,54,12.00
2012,09,19,01,56,12.00
2012,09,19,01,57,12.00
2012,09,19,01,58,12.00
2012,09,19,01,59,12.00
2012,09,19,02,00,12.00
2012,09,19,02,01,12.00
2012,09,19,02,02,12.00
2012,09,19,02,03,11.90
2012,09,19,02,04,11.90
2012,09,19,02,05,11.90
2012,09,19,02,06,11.90
2012,09,19,02,07,11.90
2012,09,19,02,08,11.80
2012,09,19,02,09,11.80
2012,09,19,02,11,11.80
2012,09,19,02,12,11.70
2012,09,19,02,13,11.70
2012,09,19,02,14,11.60
2012,09,19,02,16,11.60
2012,09,19,02,17,11.60
2012,09,19,02,18,11.50
2012,09,19,02,19,11.40
2012,09,19,02,20,11.40
2012,09,19,02,21,11.40
2012,09,19,02,22,11.40
2012,09,19,02,24,11.40
2012,09,19,02,25,11.30
2012,09,19,02,26,11.30
2012,09,19,02,28,11.30
2012,09,19,02,29,11.30
2012,09,19,02,30,11.30
2012,09,19,02,31,11.30
2012,09,19,02,32,11.30
2012,09,19,02,33,11.30
2012,09,19,02,34,11.30
2012,09,19,02,35,11.30
2012,09,19,02,36,11.40
2012,09,19,02,37,11.40
2012,09,19,02,38,11.40
2012,09,19,02,39,11.40
2012,09,19,02,40,11.40
2012,09,19,02,41,11.40
2012,09,19,02,42,11.40
2012,09,19,02,44,11.50
2012,09,19,02,45,11.50
2012,09,19,02,46,11.50
2012,09,19,02,47,11.60
2012,09,19,02,49,11.50
2012,09,19,02,50,11.50
2012,09,19,02,51,11.40
2012,09,19,02,52,11.40
2012,09,19,02,53,11.40
2012,09,19,02,54,11.40
2012,09,19,02,55,11.40
2012,09,19,02,56,11.40
2012,09,19,02,58,11.50
2012,09,19,02,59,11.50
2012,09,19,03,00,11.50
2012,09,19,03,01,11.60
2012,09,19,03,03,11.60
2012,09,19,03,04,11.60
2012,09,19,03,05,11.70
2012,09,19,03,06,11.70
2012,09,19,03,08,11.70
2012,09,19,03,09,11.70
2012,09,19,03,10,11.70
2012,09,19,03,11,11.80
2012,09,19,03,12,11.80
2012,09,19,03,13,11.80
2012,09,19,03,14,11.80
2012,09,19,03,15,11.80
2012,09,19,03,17,11.80
2012,09,19,03,18,11.80
2012,09,19,03,19,11.80
2012,09,19,03,20,11.70
2012,09,19,03,22,11.70
2012,09,19,03,23,11.70
2012,09,19,03,24,11.70
2012,09,19,03,25,11.60
2012,09,19,03,27,11.60
2012,09,19,03,28,11.60
2012,09,19,03,29,11.50
2012,09,19,03,31,11.50
2012,09,19,03,32,11.40
2012,09,19,03,33,11.40
2012,09,19,03,34,11.40
2012,09,19,03,35,11.40
2012,09,19,03,36,11.40
2012,09,19,03,37,11.40
2012,09,19,03,39,11.40
2012,09,19,03,40,11.40
2012,09,19,03,41,11.40
2012,09,19,03,42,11.40
2012,09,19,03,44,11.40
2012,09,19,03,45,11.40
2012,09,19,03,46,11.40
2012,09,19,03,47,11.50
2012,09,19,03,49,11.50
2012,09,19,03,50,11.50
2012,09,19,03,51,11.50
2012,09,19,03,53,11.60
2012,09,19,03,54,11.60
2012,09,19,03,55,11.60
2012,09,19,03,56,11.60
2012,09,19,03,58,11.60
2012,09,19,03,59,11.60
2012,09,19,04,00,11.60
2012,09,19,04,02,11.70
2012,09,19,04,03,11.70
2012,09,19,04,04,11.70
2012,09,19,04,05,11.70
2012,09,19,04,07,11.70
2012,09,19,04,08,11.80
2012,09,19,04,09,11.80
2012,09,19,04,10,11.80
2012,09,19,04,12,11.80
2012,09,19,04,13,11.80
2012,09,19,04,14,11.80
2012,09,19,04,15,11.80
2012,09,19,04,16,11.70
2012,09,19,04,17,11.70
2012,09,19,04,18,11.70
2012,09,19,04,19,11.70
2012,09,19,04,20,11.70
2012,09,19,04,22,11.60
2012,09,19,04,23,11.50
2012,09,19,04,24,11.40
2012,09,19,04,25,11.40
2012,09,19,04,27,11.30
2012,09,19,04,28,11.30
2012,09,19,04,29,11.30
2012,09,19,04,31,11.20
2012,09,19,04,32,11.20
2012,09,19,04,33,11.10
2012,09,19,04,34,11.10
2012,09,19,04,36,11.00
2012,09,19,04,37,10.90
2012,09,19,04,38,10.90
2012,09,19,04,39,10.80
2012,09,19,04,41,10.80
2012,09,19,04,42,10.80
2012,09,19,04,43,10.70
2012,09,19,04,44,10.70
2012,09,19,04,45,10.70
2012,09,19,04,46,10.70
2012,09,19,04,47,10.70
2012,09,19,04,48,10.70
2012,09,19,04,49,10.60
2012,09,19,04,51,10.60
2012,09,19,04,52,10.60
2012,09,19,04,53,10.60
2012,09,19,04,54,10.60
2012,09,19,04,56,10.60
2012,09,19,04,57,10.60
2012,09,19,04,58,10.60
2012,09,19,04,59,10.60
2012,09,19,05,00,10.60
2012,09,19,05,01,10.60
2012,09,19,05,03,10.60
2012,09,19,05,04,10.40
2012,09,19,05,05,10.40
2012,09,19,05,06,10.40
2012,09,19,05,08,10.40
2012,09,19,05,09,10.40
2012,09,19,05,10,10.40
2012,09,19,05,12,10.40
2012,09,19,05,13,10.40
2012,09,19,05,14,10.40
2012,09,19,05,16,10.40
2012,09,19,05,17,10.40
2012,09,19,05,18,10.40
2012,09,19,05,19,10.40
2012,09,19,05,21,10.50
2012,09,19,05,22,10.50
2012,09,19,05,23,10.60
2012,09,19,05,24,10.60
2012,09,19,05,25,10.60
2012,09,19,05,27,10.60
2012,09,19,05,28,10.60
2012,09,19,05,29,10.60
2012,09,19,05,30,10.60
2012,09,19,05,31,10.60
2012,09,19,05,32,10.60
2012,09,19,05,33,10.60
2012,09,19,05,34,10.60
2012,09,19,05,35,10.70
2012,09,19,05,37,10.70
2012,09,19,05,38,10.80
2012,09,19,05,39,10.90
2012,09,19,05,40,10.90
2012,09,19,05,42,10.90
2012,09,19,05,43,11.10
2012,09,19,05,44,11.10
2012,09,19,05,45,11.10
2012,09,19,05,46,11.00
2012,09,19,05,47,11.00
2012,09,19,05,48,10.90
2012,09,19,05,49,10.80
2012,09,19,05,50,10.70
2012,09,19,05,52,10.70
2012,09,19,05,53,10.60
2012,09,19,05,54,10.40
2012,09,19,05,56,10.30
2012,09,19,05,57,10.20
2012,09,19,05,58,10.20
2012,09,19,05,59,10.10
2012,09,19,06,00,10.10
2012,09,19,06,02,10.10
2012,09,19,06,03,10.00
2012,09,19,06,04,10.00
2012,09,19,06,06,9.90
2012,09,19,06,07,9.90
2012,09,19,06,08,9.90
2012,09,19,06,09,9.90
2012,09,19,06,11,9.90
2012,09,19,06,12,9.90
2012,09,19,06,13,9.90
2012,09,19,06,14,9.90
2012,09,19,06,16,9.90
2012,09,19,06,17,10.00
2012,09,19,06,18,10.00
2012,09,19,06,19,10.00
2012,09,19,06,20,10.00
2012,09,19,06,21,10.00
2012,09,19,06,22,10.00
2012,09,19,06,23,10.10
2012,09,19,06,25,10.10
2012,09,19,06,26,10.10
2012,09,19,06,27,10.10
2012,09,19,06,28,10.10
2012,09,19,06,29,10.10
2012,09,19,06,30,10.10
2012,09,19,06,31,10.10
2012,09,19,06,32,10.10
2012,09,19,06,34,10.10
2012,09,19,06,35,10.10
2012,09,19,06,36,10.10
2012,09,19,06,37,10.10
2012,09,19,06,39,10.10
2012,09,19,06,40,10.10
2012,09,19,06,41,10.10
2012,09,19,06,42,10.10
2012,09,19,06,43,10.10
2012,09,19,06,44,10.10
2012,09,19,06,45,10.10
2012,09,19,06,47,10.10
2012,09,19,06,48,10.10
2012,09,19,06,49,10.00
2012,09,19,06,50,10.00
2012,09,19,06,52,10.00
2012,09,19,06,53,10.10
2012,09,19,06,54,10.10
2012,09,19,06,55,10.10
2012,09,19,06,56,10.10
2012,09,19,06,58,10.10
2012,09,19,06,59,10.10
2012,09,19,07,00,10.10
2012,09,19,07,01,10.10
2012,09,19,07,03,10.10
2012,09,19,07,04,10.10
2012,09,19,07,05,10.00
2012,09,19,07,06,10.00
2012,09,19,07,08,9.90
2012,09,19,07,09,9.90
2012,09,19,07,10,9.90
2012,09,19,07,11,9.90
2012,09,19,07,13,9.90
2012,09,19,07,14,9.90
2012,09,19,07,15,9.90
2012,09,19,07,17,9.90
2012,09,19,07,18,9.90
2012,09,19,07,19,9.80
2012,09,19,07,20,9.80
2012,09,19,07,22,9.80
2012,09,19,07,23,9.80
2012,09,19,07,24,9.80
2012,09,19,07,25,9.80
2012,09,19,07,26,9.80
2012,09,19,07,27,9.80
2012,09,19,07,28,9.80
2012,09,19,07,30,9.80
2012,09,19,07,31,9.90
2012,09,19,07,32,9.90
2012,09,19,07,33,9.90
2012,09,19,07,34,9.90
2012,09,19,07,35,9.90
2012,09,19,07,36,9.80
2012,09,19,07,37,9.80
2012,09,19,07,38,9.80
2012,09,19,07,39,9.80
2012,09,19,07,40,9.80
2012,09,19,07,41,9.80
2012,09,19,07,42,9.70
2012,09,19,07,43,9.70
2012,09,19,07,44,9.70
2012,09,19,07,45,9.70
2012,09,19,07,46,9.70
2012,09,19,07,48,9.70
2012,09,19,07,49,9.70
2012,09,19,07,50,9.80
2012,09,19,07,51,9.80
2012,09,19,07,52,9.80
2012,09,19,07,53,9.80
2012,09,19,07,54,9.80
2012,09,19,07,55,9.90
2012,09,19,07,56,9.90
2012,09,19,07,57,9.90
2012,09,19,07,59,9.90
2012,09,19,08,00,10.00
2012,09,19,08,01,10.10
2012,09,19,08,02,10.10
2012,09,19,08,04,10.10
2012,09,19,08,05,10.20
2012,09,19,08,06,10.20
2012,09,19,08,07,10.20
2012,09,19,08,08,10.30
2012,09,19,08,10,10.30
2012,09,19,08,11,10.40
2012,09,19,08,12,10.40
2012,09,19,08,13,10.40
2012,09,19,08,15,10.40
2012,09,19,08,16,10.50
2012,09,19,08,17,10.60
2012,09,19,08,18,10.60
2012,09,19,08,19,10.60
2012,09,19,08,21,10.60
2012,09,19,08,22,10.70
2012,09,19,08,23,10.70
2012,09,19,08,24,10.70
2012,09,19,08,25,10.80
2012,09,19,08,26,10.80
2012,09,19,08,27,10.80
2012,09,19,08,28,10.90
2012,09,19,08,29,10.90
2012,09,19,08,31,11.00
2012,09,19,08,32,11.10
2012,09,19,08,33,11.20
2012,09,19,08,34,11.20
2012,09,19,08,35,11.30
2012,09,19,08,36,11.30
2012,09,19,08,37,11.40
2012,09,19,08,38,11.50
2012,09,19,08,39,11.60
2012,09,19,08,40,11.70
2012,09,19,08,41,11.70
2012,09,19,08,43,11.80
2012,09,19,08,44,11.90
2012,09,19,08,45,12.00
2012,09,19,08,46,12.10
2012,09,19,08,48,12.20
2012,09,19,08,49,12.30
2012,09,19,08,50,12.50
2012,09,19,08,51,12.60
2012,09,19,08,52,12.70
2012,09,19,08,53,12.80
2012,09,19,08,54,12.80
2012,09,19,08,55,12.90
2012,09,19,08,56,12.90
2012,09,19,08,57,13.00
2012,09,19,08,58,13.10
2012,09,19,08,59,13.20
2012,09,19,09,00,13.20
2012,09,19,09,02,13.30
2012,09,19,09,03,13.40
2012,09,19,09,04,13.40
2012,09,19,09,05,13.60
2012,09,19,09,07,13.60
2012,09,19,09,08,13.70
2012,09,19,09,09,13.90
2012,09,19,09,10,14.00
2012,09,19,09,12,14.20
2012,09,19,09,13,14.30
2012,09,19,09,14,14.40
2012,09,19,09,15,14.50
2012,09,19,09,17,14.60
2012,09,19,09,18,14.70
2012,09,19,09,19,14.80
2012,09,19,09,21,14.80
2012,09,19,09,22,14.80
2012,09,19,09,23,14.80
2012,09,19,09,24,14.90
2012,09,19,09,26,14.90
2012,09,19,09,27,14.90
2012,09,19,09,28,14.90
2012,09,19,09,30,14.90
2012,09,19,09,31,14.90
2012,09,19,09,32,14.90
2012,09,19,09,33,15.00
2012,09,19,09,34,15.00
2012,09,19,09,35,15.00
2012,09,19,09,36,15.10
2012,09,19,09,37,15.00
2012,09,19,09,38,15.10
2012,09,19,09,40,15.10
2012,09,19,09,41,15.00
2012,09,19,09,42,15.00
2012,09,19,09,43,14.90
2012,09,19,09,44,14.90
2012,09,19,09,45,14.90
2012,09,19,09,46,14.80
2012,09,19,09,47,14.70
2012,09,19,09,49,14.70
2012,09,19,09,50,14.70
2012,09,19,09,51,14.70
2012,09,19,09,52,14.70
2012,09,19,09,53,14.70
2012,09,19,09,54,14.70
2012,09,19,09,55,14.60
2012,09,19,09,56,14.60
2012,09,19,09,57,14.60
2012,09,19,09,58,14.70
2012,09,19,09,59,14.70
2012,09,19,10,00,14.70
2012,09,19,10,01,14.70
2012,09,19,10,02,14.60
2012,09,19,10,03,14.60
2012,09,19,10,05,14.60
2012,09,19,10,06,14.70
2012,09,19,10,07,14.70
2012,09,19,10,08,14.70
2012,09,19,10,09,14.70
2012,09,19,10,10,14.70
2012,09,19,10,11,14.70
2012,09,19,10,12,14.80
2012,09,19,10,13,14.70
2012,09,19,10,14,14.80
2012,09,19,10,15,14.80
2012,09,19,10,16,14.70
2012,09,19,10,17,14.70
2012,09,19,10,18,14.70
2012,09,19,10,19,14.70
2012,09,19,10,20,14.70
2012,09,19,10,21,14.70
2012,09,19,10,23,14.70
2012,09,19,10,24,14.70
2012,09,19,10,25,14.70
2012,09,19,10,26,14.70
2012,09,19,10,27,14.70
2012,09,19,10,28,14.70
2012,09,19,10,29,14.60
2012,09,19,10,30,14.50
2012,09,19,10,31,14.40
2012,09,19,10,33,14.30
2012,09,19,10,34,14.30
2012,09,19,10,35,14.40
2012,09,19,10,36,14.40
2012,09,19,10,38,14.40
2012,09,19,10,39,14.50
2012,09,19,10,40,14.60
2012,09,19,10,42,14.70
2012,09,19,10,43,14.70
2012,09,19,10,44,14.80
2012,09,19,10,45,14.80
2012,09,19,10,47,14.90
2012,09,19,10,48,14.90
2012,09,19,10,49,15.10
2012,09,19,10,50,15.10
2012,09,19,10,52,15.20
2012,09,19,10,53,15.30
2012,09,19,10,54,15.30
2012,09,19,10,55,15.30
2012,09,19,10,57,15.40
2012,09,19,10,58,15.50
2012,09,19,10,59,15.60
2012,09,19,11,01,15.70
2012,09,19,11,02,15.90
2012,09,19,11,03,15.90
2012,09,19,11,05,16.00
2012,09,19,11,06,16.00
2012,09,19,11,07,16.10
2012,09,19,11,08,16.20
2012,09,19,11,09,16.20
2012,09,19,11,11,16.30
2012,09,19,11,12,16.40
2012,09,19,11,13,16.50
2012,09,19,11,14,16.60
2012,09,19,11,16,16.80
2012,09,19,11,17,16.80
2012,09,19,11,18,17.10
2012,09,19,11,19,17.10
2012,09,19,11,20,17.20
2012,09,19,11,22,17.20
2012,09,19,11,23,17.30
2012,09,19,11,24,17.40
2012,09,19,11,25,17.40
2012,09,19,11,27,17.40
2012,09,19,11,28,17.30
2012,09,19,11,29,17.30
2012,09,19,11,30,17.30
2012,09,19,11,32,17.40
2012,09,19,11,33,17.40
2012,09,19,11,34,17.30
2012,09,19,11,35,17.30
2012,09,19,11,37,17.20
2012,09,19,11,38,17.10
2012,09,19,11,39,17.20
2012,09,19,11,40,17.20
2012,09,19,11,41,17.20
2012,09,19,11,42,17.20
2012,09,19,11,43,17.20
2012,09,19,11,44,17.20
2012,09,19,11,45,17.10
2012,09,19,11,46,17.10
2012,09,19,11,48,17.10
2012,09,19,11,49,17.20
2012,09,19,11,50,17.30
2012,09,19,11,51,17.40
2012,09,19,11,53,17.60
2012,09,19,11,54,17.80
2012,09,19,11,55,17.80
2012,09,19,11,56,17.90
2012,09,19,11,57,17.90
2012,09,19,11,58,18.10
2012,09,19,11,59,18.10
2012,09,19,12,00,18.10
2012,09,19,12,02,18.20
2012,09,19,12,03,18.30
2012,09,19,12,04,18.30
2012,09,19,12,05,18.40
2012,09,19,12,06,18.40
2012,09,19,12,07,18.50
2012,09,19,12,08,18.60
2012,09,19,12,09,18.70
2012,09,19,12,10,18.70
2012,09,19,12,12,18.80
2012,09,19,12,13,18.90
2012,09,19,12,14,18.90
2012,09,19,12,15,19.00
2012,09,19,12,17,19.10
2012,09,19,12,18,19.10
2012,09,19,12,19,19.20
2012,09,19,12,20,19.20
2012,09,19,12,21,19.20
2012,09,19,12,22,19.20
2012,09,19,12,23,19.20
2012,09,19,12,24,19.30
2012,09,19,12,25,19.30
2012,09,19,12,26,19.30
2012,09,19,12,27,19.40
2012,09,19,12,28,19.50
2012,09,19,12,30,19.40
2012,09,19,12,31,19.40
2012,09,19,12,32,19.40
2012,09,19,12,33,19.40
2012,09,19,12,34,19.40
2012,09,19,12,35,19.40
2012,09,19,12,36,19.40
2012,09,19,12,37,19.50
2012,09,19,12,38,19.60
2012,09,19,12,39,19.70
2012,09,19,12,40,19.70
2012,09,19,12,41,19.80
2012,09,19,12,42,19.80
2012,09,19,12,43,19.90
2012,09,19,12,44,19.90
2012,09,19,12,46,19.90
2012,09,19,12,47,20.10
2012,09,19,12,48,20.10
2012,09,19,12,49,20.20
2012,09,19,12,51,20.20
2012,09,19,12,52,20.00
2012,09,19,12,53,20.00
2012,09,19,12,54,20.00
2012,09,19,12,56,20.00
2012,09,19,12,57,20.10
2012,09,19,12,58,20.20
2012,09,19,12,59,20.20
2012,09,19,13,00,20.20
2012,09,19,13,01,20.30
2012,09,19,13,02,20.30
2012,09,19,13,03,20.30
2012,09,19,13,04,20.30
2012,09,19,13,05,20.40
2012,09,19,13,06,20.50
2012,09,19,13,07,20.60
2012,09,19,13,08,20.70
2012,09,19,13,10,20.70
2012,09,19,13,11,20.70
2012,09,19,13,12,20.70
2012,09,19,13,13,20.70
2012,09,19,13,14,20.70
2012,09,19,13,16,20.70
2012,09,19,13,17,20.70
2012,09,19,13,18,20.70
2012,09,19,13,19,20.80
2012,09,19,13,21,20.80
2012,09,19,13,22,20.70
2012,09,19,13,23,20.70
2012,09,19,13,24,20.70
2012,09,19,13,25,20.80
2012,09,19,13,26,20.80
2012,09,19,13,27,20.70
2012,09,19,13,28,20.70
2012,09,19,13,30,20.70
2012,09,19,13,31,20.80
2012,09,19,13,32,20.90
2012,09,19,13,33,21.00
2012,09,19,13,34,21.00
2012,09,19,13,35,21.10
2012,09,19,13,36,21.10
2012,09,19,13,37,21.20
2012,09,19,13,38,21.20
2012,09,19,13,39,21.30
2012,09,19,13,40,21.30
2012,09,19,13,41,21.40
2012,09,19,13,43,21.40
2012,09,19,13,44,21.40
2012,09,19,13,45,21.40
2012,09,19,13,46,21.30
2012,09,19,13,48,21.30
2012,09,19,13,49,21.20
2012,09,19,13,50,21.20
2012,09,19,13,51,21.20
2012,09,19,13,52,21.20
2012,09,19,13,54,21.20
2012,09,19,13,55,21.20
2012,09,19,13,56,21.30
2012,09,19,13,58,21.30
2012,09,19,13,59,21.40
2012,09,19,14,00,21.40
2012,09,19,14,01,21.40
2012,09,19,14,03,21.30
2012,09,19,14,04,21.20
2012,09,19,14,05,21.20
2012,09,19,14,06,21.10
2012,09,19,14,07,21.10
2012,09,19,14,09,20.90
2012,09,19,14,10,20.80
2012,09,19,14,11,20.70
2012,09,19,14,12,20.60
2012,09,19,14,13,20.40
2012,09,19,14,15,20.40
2012,09,19,14,16,20.30
2012,09,19,14,17,20.20
2012,09,19,14,18,20.20
2012,09,19,14,19,20.20
2012,09,19,14,20,20.20
2012,09,19,14,21,20.20
2012,09,19,14,22,20.20
2012,09,19,14,23,20.20
2012,09,19,14,25,20.20
2012,09,19,14,26,20.30
2012,09,19,14,27,20.40
2012,09,19,14,28,20.60
2012,09,19,14,30,20.60
2012,09,19,14,31,20.70
2012,09,19,14,32,20.70
2012,09,19,14,33,20.70
2012,09,19,14,34,20.70
2012,09,19,14,35,20.70
2012,09,19,14,36,20.70
2012,09,19,14,37,20.70
2012,09,19,14,38,20.80
2012,09,19,14,40,20.70
2012,09,19,14,41,20.60
2012,09,19,14,42,20.50
2012,09,19,14,43,20.40
2012,09,19,14,44,20.40
2012,09,19,14,46,20.40
2012,09,19,14,47,20.40
2012,09,19,14,48,20.40
2012,09,19,14,49,20.40
2012,09,19,14,50,20.40
2012,09,19,14,51,20.40
2012,09,19,14,52,20.40
2012,09,19,14,53,20.40
2012,09,19,14,54,20.40
2012,09,19,14,55,20.40
2012,09,19,14,56,20.40
2012,09,19,14,58,20.40
2012,09,19,14,59,20.50
2012,09,19,15,00,20.60
2012,09,19,15,01,20.60
2012,09,19,15,02,20.60
2012,09,19,15,04,20.60
2012,09,19,15,05,20.60
2012,09,19,15,06,20.70
2012,09,19,15,07,20.70
2012,09,19,15,09,20.70
2012,09,19,15,10,20.60
2012,09,19,15,11,20.60
2012,09,19,15,12,20.60
2012,09,19,15,14,20.40
2012,09,19,15,15,20.30
2012,09,19,15,16,20.20
2012,09,19,15,17,20.20
2012,09,19,15,19,20.10
2012,09,19,15,20,20.10
2012,09,19,15,21,20.20
2012,09,19,15,22,20.20
2012,09,19,15,23,20.30
2012,09,19,15,25,20.30
2012,09,19,15,26,20.40
2012,09,19,15,27,20.40
2012,09,19,15,28,20.60
2012,09,19,15,30,20.60
2012,09,19,15,31,20.60
2012,09,19,15,32,20.60
2012,09,19,15,34,20.60
2012,09,19,15,35,20.60
2012,09,19,15,36,20.70
2012,09,19,15,37,20.70
2012,09,19,15,39,20.80
2012,09,19,15,40,20.80
2012,09,19,15,41,20.80
2012,09,19,15,42,20.70
2012,09,19,15,43,20.70
2012,09,19,15,44,20.70
2012,09,19,15,45,20.70
2012,09,19,15,46,20.70
2012,09,19,15,47,20.80
2012,09,19,15,49,20.80
2012,09,19,15,50,20.80
2012,09,19,15,51,20.80
2012,09,19,15,52,20.80
2012,09,19,15,54,20.80
2012,09,19,15,55,20.80
2012,09,19,15,56,20.80
2012,09,19,15,57,20.90
2012,09,19,15,58,20.90
2012,09,19,15,59,20.90
2012,09,19,16,00,21.00
2012,09,19,16,01,21.10
2012,09,19,16,02,21.10
2012,09,19,16,04,21.20
2012,09,19,16,05,21.20
2012,09,19,16,06,21.20
2012,09,19,16,07,21.20
2012,09,19,16,08,21.20
2012,09,19,16,09,21.10
2012,09,19,16,10,21.10
2012,09,19,16,11,21.10
2012,09,19,16,12,21.00
2012,09,19,16,13,20.90
2012,09,19,16,14,20.90
2012,09,19,16,15,20.90
2012,09,19,16,16,20.90
2012,09,19,16,17,20.90
2012,09,19,16,18,20.90
2012,09,19,16,19,21.00
2012,09,19,16,20,21.10
2012,09,19,16,21,21.10
2012,09,19,16,22,21.10
2012,09,19,16,23,21.00
2012,09,19,16,24,21.00
2012,09,19,16,25,21.00
2012,09,19,16,26,21.00
2012,09,19,16,28,21.10
2012,09,19,16,29,21.10
2012,09,19,16,30,21.10
2012,09,19,16,31,21.10
2012,09,19,16,33,21.10
2012,09,19,16,34,20.90
2012,09,19,16,35,20.80
2012,09,19,16,37,20.70
2012,09,19,16,38,20.70
2012,09,19,16,39,20.70
2012,09,19,16,40,20.70
2012,09,19,16,42,20.80
2012,09,19,16,43,20.80
2012,09,19,16,44,20.90
2012,09,19,16,46,20.90
2012,09,19,16,47,20.80
2012,09,19,16,48,20.80
2012,09,19,16,49,20.80
2012,09,19,16,51,20.70
2012,09,19,16,52,20.70
2012,09,19,16,53,20.70
2012,09,19,16,54,20.70
2012,09,19,16,55,20.80
2012,09,19,16,56,20.80
2012,09,19,16,57,20.90
2012,09,19,16,59,20.90
2012,09,19,17,00,20.90
2012,09,19,17,01,20.90
2012,09,19,17,02,20.90
2012,09,19,17,04,20.90
2012,09,19,17,05,21.00
2012,09,19,17,06,21.10
2012,09,19,17,07,21.10
2012,09,19,17,08,21.10
2012,09,19,17,10,21.00
2012,09,19,17,11,20.90
2012,09,19,17,12,21.00
2012,09,19,17,14,21.00
2012,09,19,17,15,20.90
2012,09,19,17,16,20.90
2012,09,19,17,18,20.90
2012,09,19,17,19,21.00
2012,09,19,17,21,21.10
2012,09,19,17,22,21.10
2012,09,19,17,23,21.10
2012,09,19,17,25,21.10
2012,09,19,17,26,21.10
2012,09,19,17,27,21.10
2012,09,19,17,29,21.10
2012,09,19,17,30,21.00
2012,09,19,17,31,20.90
2012,09,19,17,32,20.90
2012,09,19,17,34,20.80
2012,09,19,17,35,20.90
2012,09,19,17,36,20.90
2012,09,19,17,38,20.90
2012,09,19,17,39,20.90
2012,09,19,17,40,20.90
2012,09,19,17,41,20.90
2012,09,19,17,42,20.90
2012,09,19,17,43,20.90
2012,09,19,17,44,20.90
2012,09,19,17,45,21.00
2012,09,19,17,46,21.00
2012,09,19,17,47,21.10
2012,09,19,17,48,21.10
2012,09,19,17,49,21.10
2012,09,19,17,50,21.20
2012,09,19,17,52,21.20
2012,09,19,17,53,21.20
2012,09,19,17,54,21.20
2012,09,19,17,55,21.20
2012,09,19,17,57,21.10
2012,09,19,17,58,21.10
2012,09,19,17,59,21.00
2012,09,19,18,00,20.90
2012,09,19,18,01,20.90
2012,09,19,18,02,20.90
2012,09,19,18,03,20.90
2012,09,19,18,04,20.90
2012,09,19,18,06,20.90
2012,09,19,18,07,21.00
2012,09,19,18,08,21.00
2012,09,19,18,09,21.00
2012,09,19,18,10,21.00
2012,09,19,18,12,21.10
2012,09,19,18,13,21.20
2012,09,19,18,14,21.20
2012,09,19,18,15,21.20
2012,09,19,18,17,21.30
2012,09,19,18,18,21.30
2012,09,19,18,19,21.30
2012,09,19,18,20,21.40
2012,09,19,18,21,21.40
2012,09,19,18,22,21.40
2012,09,19,18,23,21.40
2012,09,19,18,24,21.40
2012,09,19,18,25,21.40
2012,09,19,18,26,21.50
2012,09,19,18,27,21.50
2012,09,19,18,28,21.50
2012,09,19,18,29,21.40
2012,09,19,18,30,21.40
2012,09,19,18,31,21.30
2012,09,19,18,33,21.30
2012,09,19,18,34,21.20
2012,09,19,18,35,21.20
2012,09,19,18,36,21.20
2012,09,19,18,38,21.20
2012,09,19,18,39,21.20
2012,09,19,18,40,21.20
2012,09,19,18,41,21.10
2012,09,19,18,43,21.10
2012,09,19,18,44,21.00
2012,09,19,18,45,20.90
2012,09,19,18,46,20.90
2012,09,19,18,48,20.80
2012,09,19,18,49,20.80
2012,09,19,18,50,20.70
2012,09,19,18,51,20.70
2012,09,19,18,53,20.60
2012,09,19,18,54,20.60
2012,09,19,18,55,20.50
2012,09,19,18,56,20.50
2012,09,19,18,58,20.40
2012,09,19,18,59,20.30
2012,09,19,19,00,20.30
2012,09,19,19,01,20.20
2012,09,19,19,03,20.20
2012,09,19,19,04,20.10
2012,09,19,19,05,19.90
2012,09,19,19,06,19.90
2012,09,19,19,08,19.80
2012,09,19,19,09,19.70
2012,09,19,19,10,19.70
2012,09,19,19,11,19.60
2012,09,19,19,12,19.50
2012,09,19,19,14,19.40
2012,09,19,19,15,19.30
2012,09,19,19,16,19.20
2012,09,19,19,17,19.20
2012,09,19,19,18,19.10
2012,09,19,19,19,19.10
2012,09,19,19,20,19.00
2012,09,19,19,21,18.90
2012,09,19,19,22,18.90
2012,09,19,19,24,18.80
2012,09,19,19,25,18.80
2012,09,19,19,26,18.70
2012,09,19,19,27,18.70
2012,09,19,19,29,18.60
2012,09,19,19,30,18.60
2012,09,19,19,31,18.60
2012,09,19,19,32,18.50
2012,09,19,19,34,18.40
2012,09,19,19,35,18.40
2012,09,19,19,36,18.40
2012,09,19,19,37,18.30
2012,09,19,19,38,18.30
2012,09,19,19,39,18.30
2012,09,19,19,40,18.20
2012,09,19,19,41,18.20
2012,09,19,19,42,18.10
2012,09,19,19,44,18.10
2012,09,19,19,45,18.00
2012,09,19,19,46,17.90
2012,09,19,19,47,17.90
2012,09,19,19,49,17.90
2012,09,19,19,50,17.80
2012,09,19,19,51,17.80
2012,09,19,19,52,17.70
2012,09,19,19,53,17.70
2012,09,19,19,55,17.70
2012,09,19,19,56,17.60
2012,09,19,19,57,17.60
2012,09,19,19,58,17.50
2012,09,19,19,59,17.50
2012,09,19,20,00,17.40
2012,09,19,20,01,17.40
2012,09,19,20,02,17.40
2012,09,19,20,03,17.30
2012,09,19,20,05,17.30
2012,09,19,20,06,17.30
2012,09,19,20,07,17.20
2012,09,19,20,08,17.20
2012,09,19,20,10,17.20
2012,09,19,20,11,17.10
2012,09,19,20,12,17.10
2012,09,19,20,13,17.10
2012,09,19,20,15,17.10
2012,09,19,20,16,16.90
2012,09,19,20,17,16.90
2012,09,19,20,18,16.90
2012,09,19,20,19,16.90
2012,09,19,20,20,16.80
2012,09,19,20,21,16.80
2012,09,19,20,22,16.80
2012,09,19,20,23,16.70
2012,09,19,20,24,16.70
2012,09,19,20,26,16.70
2012,09,19,20,27,16.60
2012,09,19,20,28,16.60
2012,09,19,20,29,16.60